Hourly Weather Roundup
Issued by NWS Central Illinois

Home | Current Version | Previous Version | Text Only | Print | Product List | Glossary On
Versions: 1 2 3 4 5 6 7 8 9 10 11 12 13 14 15 16 17 18 19 20 21 22 23 24 25 26 27 28 29 30 31 32 33 34 35 36 37 38 39 40 41 42 43 44 45 46 47 48 49 50
000
NZUS43 KILX 200410
HWRILX

AREA WEATHER ROUNDUP
NATIONAL WEATHER SERVICE, LINCOLN IL
1000 PM CST FRI DEC 19 2014


CITY           SKY/WX    TMP DP  RH WIND       PRES   REMARKS
BLOOMINGTON    MOCLDY    25  23  91 CALM      30.26S
CHAMPAIGN      CLOUDY    27  24  89 SE3       30.26S FOG
DECATUR        CLOUDY    29  26  89 CALM      30.27S
FLORA          CLOUDY    32  27  80 CALM      30.28S
GALESBURG      CLOUDY    29  25  83 SE3       30.26R
JACKSONVILLE   CLOUDY    33  29  84 E5        30.26S WCI  29
LACON          MOCLDY    26  23  86 CALM      30.26S
LAWRENCEVILLE  CLOUDY    31  26  82 NE3       30.28R
LITCHFIELD     CLOUDY    31  24  72 SE3       30.27R
$$


CITY           SKY/WX    TMP DP  RH WIND       PRES   REMARKS
LINCOLN        CLOUDY    31  27  88 CALM      30.28S
MACOMB         CLOUDY    30  26  84 S3        30.28S
MATTOON        CLOUDY    29  23  78 CALM      30.26R
MT CARMEL AP   CLOUDY    32  28  86 CALM      30.28R
OLNEY-NOBLE AP CLOUDY    32  27  80 CALM      30.28S
PARIS          CLOUDY    31  28  91 CALM      30.28R
PEORIA         MOCLDY    29  22  75 CALM      30.28R
PONTIAC        MOCLDY    25  23  94 CALM      30.28S
RANTOUL        CLOUDY    29  27  92 CALM      30.27S FOG
ROBINSON       CLOUDY    32  27  81 E3        30.30R
SPRINGFIELD    MOCLDY    31  24  75 E3        30.27S
TAYLORVILLE    CLOUDY    30  27  86 CALM      30.27S
$$

...REGIONAL REPORTS...


CITY           SKY/WX    TMP DP  RH WIND       PRES   REMARKS
CHICAGO O`HARE CLOUDY    29  21  72 N3        30.26S
KANKAKEE       CLOUDY    30  27  88 CALM      30.28S
MOLINE         CLOUDY    29  23  78 E3        30.26S
MOUNT VERNON   CLOUDY    34  23  64 E3        30.28R
PITTSFIELD     CLOUDY    33  29  86 E3        30.27R
QUINCY         CLOUDY    31  26  82 SE5       30.25S WCI  26
ROCKFORD       CLOUDY    28  22  78 NE6       30.28F WCI  22
$$


CITY           SKY/WX    TMP DP  RH WIND       PRES   REMARKS
BURLINGTON     CLOUDY    31  25  78 S3        30.25S
CEDAR RAPIDS   CLOUDY    29  23  78 SE5       30.23R WCI  24
DES MOINES     FRZ DRZL  32  29  88 SE8       30.19F FOG     WCI  25
KIRKSVILLE     CLOUDY    32  31  96 SE6       30.24R FOG     WCI  26
OTTUMWA        CLOUDY    30  25  81 S8        30.23S WCI  22
ST LOUIS       CLOUDY    36  28  73 E6        30.27R WCI  31
$$


CITY           SKY/WX    TMP DP  RH WIND       PRES   REMARKS
TERRE HAUTE    CLOUDY    31  25  78 E3        30.27F
EVANSVILLE     CLOUDY    33  25  72 E7        30.27S WCI  27
INDIANAPOLIS   CLOUDY    29  24  82 CALM      30.26R
LAFAYETTE      CLOUDY    28  27  96 CALM      30.27F FOG
MADISON        CLOUDY    25  20  81 S5        30.25R WCI  19
MILWAUKEE      CLOUDY    29  19  66 S5        30.26F WCI  24
$$





USA.gov is the U.S. government's official web portal to all federal, state and local government web resources and services.